sat.trackr.live / text

‹ back to catalog

STARLINK-4618

NORAD 53735 · 2022-107AM

PAYLOAD ACTIVE UNKNOWN

§ Identity

Operator
Country
US
Launch date
2022-09-05
Launch site
AFETR
Launch vehicle
Mass (kg)
RCS (m²)

Purposes: comms

External: N2YO · Heavens-Above · Gunter

§ Orbital elements

Epoch: 2026-09-20T22:53:31.045920Z

Period
93.85 min
Inclination
53.1598°
Eccentricity
0.0001135
Mean motion
15.34390865 rev/d
Perigee alt
462.0 km
Apogee alt
463.5 km
Semi-major
6,840.9 km
B*
2.0466e-5
RAAN
91.3110°
Arg perigee
90.2282°
Mean anomaly
269.8851°
Rev number
22,414

§ Raw data

STARLINK-46181 53735U 22107AM  26263.95383155  .00000315  00000+0  20466-4 0  99932 53735  53.1598  91.3110 0001135  90.2282 269.8851 15.34390865224140

JSON: /api/v1/satellites/53735 · /tle

For live sub-satellite position, see the globe view (requires WebGL).

§ Visibility from observer

Set your observer location to see the next 7 days of passes ≥ 10°. The values pass through the URL so the page stays shareable.

No JS? Fill the form by hand. The geolocation button needs JavaScript.